This is the latest recevied weather packets stored in our database for station/object WA4IKQ. If no packets are shown the sender has not sent any weather packets the latest 10 day(s).
| Time | Temp. | Humidity | Pressure | Rain* | Wind** | Luminosity | Snow |
|---|---|---|---|---|---|---|---|
| 1778004927 | 28.33° C | 47% | 1016.5 hPa | 0 mm | 2.24 m/s, 35° | - | - |
| 1778004735 | 28.33° C | 48% | 1016.6 hPa | 0 mm | 4.02 m/s, 4° | - | - |
| 1778004627 | 28.33° C | 48% | 1016.6 hPa | 0 mm | 4.02 m/s, 4° | - | - |
| 1778004493 | 28.33° C | 47% | 1016.7 hPa | 0 mm | 3.58 m/s, 3° | - | - |
| 1778004327 | 28.33° C | 47% | 1016.7 hPa | 0 mm | 3.58 m/s, 3° | - | - |
| 1778004080 | 28.33° C | 46% | 1016.7 hPa | 0 mm | 0.89 m/s, 298° | - | - |
| 1778004024 | 28.33° C | 46% | 1016.7 hPa | 0 mm | 0.89 m/s, 298° | - | - |
| 1778003521 | 28.89° C | 47% | 1016.6 hPa | 0 mm | 0.89 m/s, 69° | - | - |
| 1778003425 | 28.89° C | 47% | 1016.6 hPa | 0 mm | 0.89 m/s, 69° | - | - |
| 1778003230 | 28.89° C | 47% | 1016.7 hPa | 0 mm | 2.24 m/s, 21° | - | - |
| 1778003175 | 28.89° C | 47% | 1016.7 hPa | 0 mm | 2.24 m/s, 21° | - | - |
| 1778003125 | 28.89° C | 47% | 1016.7 hPa | 0 mm | 2.24 m/s, 21° | - | - |
| 1778002992 | 28.89° C | 46% | 1016.7 hPa | 0 mm | 1.79 m/s, 56° | - | - |
| 1778002826 | 28.89° C | 46% | 1016.7 hPa | 0 mm | 1.79 m/s, 56° | - | - |
| 1778002675 | 28.89° C | 46% | 1016.7 hPa | 0 mm | 0.45 m/s, 285° | - | - |
| 1778002629 | 28.89° C | 46% | 1016.7 hPa | 0 mm | 0.45 m/s, 285° | - | - |
| 1778002526 | 28.89° C | 46% | 1016.7 hPa | 0 mm | 0.45 m/s, 285° | - | - |
| 1778002292 | 28.89° C | 45% | 1016.8 hPa | 0 mm | 0.89 m/s, 326° | - | - |
| 1778002226 | 28.89° C | 45% | 1016.8 hPa | 0 mm | 0.89 m/s, 326° | - | - |
| 1778001979 | 28.89° C | 46% | 1016.7 hPa | 0 mm | 2.24 m/s, 276° | - | - |
| 1778001692 | 28.89° C | 47% | 1016.9 hPa | 0 mm | 1.79 m/s, 45° | - | - |
| 1778001624 | 28.89° C | 47% | 1016.9 hPa | 0 mm | 1.79 m/s, 45° | - | - |
| 1778001393 | 28.89° C | 47% | 1016.8 hPa | 0 mm | 2.24 m/s, 307° | - | - |
| 1778001324 | 28.89° C | 47% | 1016.8 hPa | 0 mm | 2.24 m/s, 307° | - | - |
| 1778001095 | 28.33° C | 49% | 1017 hPa | 0 mm | 0 m/s | - | - |
* Rain latest hour (hover to see other rain measurements)
** Current wind speed in m/s (hover to see current wind gust speed)